Station HIST2 - 8770808 - High Island, TX Image indicating link to RSS feed of recent meteorological observations for station HIST2


Conditions at HIST2 as of
(9:00 am CDT)
1400 GMT on 05/22/2024:
Note: This report is more than two hours old
     

Click on the graph icon in the table below to see a time series plot of the last five days of that observation.

5-day plot - Wind Direction Wind Direction (WDIR): SE ( 140 deg true )
5-day plot - Wind Speed Wind Speed (WSPD): 5.1 kts
5-day plot - Wind Gust Wind Gust (GST): 8.9 kts
5-day plot - Air Temperature Air Temperature (ATMP): 80.8 °F
5-day plot - Water Temperature Water Temperature (WTMP): 87.3 °F
5-day plot - Wind Speed at 10 Meters Wind Speed at 10 meters (WSPD10M): 5.8 kts
5-day plot - Wind Speed at 20 Meters Wind Speed at 20 meters (WSPD20M): 5.8 kts
5-day plot -  Wind Speed, Wind Gust and Atmospheric Pressure Combined plot of Wind Speed, Gust, and Air Pressure
Previous observations
TIME
(CDT)
5-day plot - Wind Direction
WDIR
 
5-day plot - Wind Speed
WSPD
kts
5-day plot - Wind Gust
GST
kts
5-day plot - Wave Height
WVHT
ft
5-day plot - Dominant Wave Period
DPD
sec
5-day plot - Average Wave Period
APD
sec
5-day plot - Mean Wave Direction
MWD
 
5-day plot - Atmospheric Pressure
PRES
in
5-day plot - Pressure Tendency
PTDY
in
5-day plot - Air Temperature
ATMP
°F
5-day plot - Water Temperature
WTMP
°F
5-day plot - Dew Point
DEWP
°F
5-day plot - Salinity
SAL
psu
5-day plot - Visibility
VIS
nmi
5-day plot - Tide (above MLLW)
TIDE
ft
2024-05-22 08:54 am SE 5.1 8.0----29.90- 80.6 87.3----
2024-05-22 08:48 am SE 4.1 7.0----29.90-- 87.3----
2024-05-22 08:42 am SE 5.1 7.0----29.90-- 87.3----
2024-05-22 08:36 am SE 4.1 7.0----29.90-- 87.3----
2024-05-22 08:30 am SE 4.1 6.0------------
2024-05-22 08:24 am SE 4.1 7.0------------
2024-05-22 08:18 am SE 4.1 6.0----29.90-- 87.3----
2024-05-22 08:12 am SE 4.1 7.0----29.90-- 87.3----
2024-05-22 08:06 am SE 2.9 7.0----29.90-- 87.3----
2024-05-22 08:00 am SE 2.9 5.1----29.90+0.05 80.2 87.3----
2024-05-22 07:54 am SE 2.9 6.0----29.90- 80.2 87.3----
2024-05-22 07:48 am SE 2.9 6.0----29.90- 80.1 87.3----
2024-05-22 07:42 am SE 4.1 6.0----29.90- 80.1 87.3----
2024-05-22 07:36 am SE 4.1 6.0----29.89- 80.1 87.3----
2024-05-22 07:30 am SE 2.9 5.1----29.89- 79.9 87.3----
2024-05-22 07:24 am SE 4.1 6.0----29.89- 79.9 87.3----
2024-05-22 07:18 am SE 2.9 6.0----29.88- 79.9 87.3----
2024-05-22 07:12 am SE 2.9 6.0----29.88- 79.9 87.3----
2024-05-22 07:06 am SE 2.9 6.0----29.88- 79.9 87.3----
2024-05-22 07:00 am SE 2.9 5.1----29.88+0.05 79.9 87.3----
2024-05-22 06:54 am SE 2.9 5.1----29.88- 79.9 87.3----
2024-05-22 06:48 am SE 1.9 5.1----29.88- 79.9 87.3----
2024-05-22 06:42 amSSE 4.1 6.0----29.87- 79.9 87.3----
2024-05-22 06:36 am SE 2.9 6.0----29.87- 79.7 87.3----
2024-05-22 06:30 am SE 1.9 5.1----29.87- 79.9 87.3----
2024-05-22 06:24 amSSE 2.9 5.1----29.87- 79.7 87.3----
2024-05-22 06:18 amSSE 4.1 6.0----29.87- 79.7 87.3----
2024-05-22 06:12 amSSE 2.9 6.0----29.86- 79.7 87.3----
2024-05-22 06:06 amSSE 4.1 6.0----29.86- 79.7 87.3----
2024-05-22 06:00 amSSE 5.1 7.0----29.86+0.02 79.7 87.3----
2024-05-22 05:54 amSSE 5.1 7.0----29.86- 79.7 87.3----
2024-05-22 05:48 amSSE 5.1 8.0----29.85- 79.7 87.3----
2024-05-22 05:42 amSSE 6.0 8.0----29.85- 79.7 87.3----
2024-05-22 05:36 amSSE 5.1 8.9----29.85- 79.5 87.3----
2024-05-22 05:30 amSSE 5.1 8.9----29.84- 79.5 87.3----
2024-05-22 05:24 am S 6.0 8.9----29.85- 79.5 87.3----
2024-05-22 05:18 amSSE 7.0 12.0----29.84- 79.5 87.3----
2024-05-22 05:12 amSSE 8.0 9.9----29.84- 79.5 87.3----
2024-05-22 05:06 am S 7.0 9.9----29.85- 79.5 87.4----
2024-05-22 05:00 am S 6.0 8.9----29.84-0.01 79.5 87.4----
2024-05-22 04:54 am S 6.0 8.9----29.84- 79.5 87.4----
2024-05-22 04:48 am S 7.0 8.9----29.84- 79.3 87.4----
2024-05-22 04:42 am S 6.0 8.9----29.84- 79.5 87.4----
2024-05-22 04:36 amSSE 8.0 13.0----29.83- 79.5 87.4----
2024-05-22 04:30 am S 8.0 11.1----29.83- 79.5 87.4----
2024-05-22 04:24 am S 8.0 13.0----29.83- 79.3 87.4----
2024-05-22 04:18 am S 8.9 12.0----29.83- 79.3 87.4----
2024-05-22 04:12 am S 7.0 11.1----29.83- 79.3 87.6----
2024-05-22 04:06 am S 8.9 12.0----29.83- 79.3 87.6----
2024-05-22 04:00 am S 8.9 13.0----29.83-0.03 79.3 87.6----
2024-05-22 03:54 am S 8.0 13.0----29.83- 79.3 87.6----
2024-05-22 03:48 am S 8.0 13.0----29.83- 79.2 87.6----
2024-05-22 03:42 amSSE 8.9 12.0----29.82- 79.2 87.6----
2024-05-22 03:36 amSSE 8.9 11.1----29.83- 79.3 87.6----
2024-05-22 03:30 amSSE 7.0 9.9----29.83- 79.3 87.6----
2024-05-22 03:24 am S 7.0 13.0----29.83- 79.3 87.6----
2024-05-22 03:18 amSSE 9.9 13.0----29.83- 79.3 87.6----
2024-05-22 03:12 am S 8.0 13.0----29.83- 79.3 87.6----
2024-05-22 03:06 am S 8.9 14.0----29.83- 79.3 87.8----
2024-05-22 03:00 am S 8.9 13.0----29.84-0.03 79.5 87.8----
2024-05-22 02:54 am S 8.9 14.0----29.84- 79.3 87.8----
2024-05-22 02:48 am S 9.9 15.9----29.84- 79.3 87.8----
2024-05-22 02:42 am S 8.9 14.0----29.84- 79.3 87.8----
2024-05-22 02:36 am S 9.9 13.0----29.84- 79.5 87.8----
2024-05-22 02:30 am S 9.9 13.0----29.84- 79.3 87.8----
2024-05-22 02:24 amSSE 11.1 14.0----29.84- 79.5 87.8----
2024-05-22 02:18 am S 9.9 13.0----29.84- 79.5 87.8----
2024-05-22 02:12 amSSE 8.9 14.0----29.84- 79.5 88.0----
2024-05-22 02:06 amSSE 9.9 13.0----29.85- 79.5 88.0----
2024-05-22 02:00 am S 9.9 15.0----29.85-0.01 79.3 88.0----
2024-05-22 01:54 amSSE 8.9 13.0----29.85- 79.3 88.2----
2024-05-22 01:48 amSSE 9.9 14.0----29.85- 79.3 88.2----
2024-05-22 01:42 amSSE 8.0 13.0----29.85- 79.5 88.2----
2024-05-22 01:36 amSSE 11.1 14.0----29.85- 79.5 88.2----
2024-05-22 01:30 amSSE 8.0 15.0----29.85- 79.5 88.3----
2024-05-22 01:24 amSSE 8.9 13.0----29.85- 79.5 88.3----
2024-05-22 01:18 amSSE 9.9 14.0----29.85- 79.5 88.5----
2024-05-22 01:12 amSSE 8.9 13.0----29.85- 79.5 88.5----
2024-05-22 01:06 amSSE 8.9 13.0----29.85- 79.7 88.5----
2024-05-22 01:00 amSSE 8.9 12.0----29.85+0.00 79.7 88.5----
2024-05-22 12:54 amSSE 7.0 13.0----29.86- 79.7 88.5----
2024-05-22 12:48 amSSE 9.9 14.0----29.86- 79.7 88.5----
2024-05-22 12:42 amSSE 7.0 13.0----29.87- 79.9 88.5----
2024-05-22 12:36 amSSE 9.9 13.0----29.87- 79.7 88.5----
2024-05-22 12:30 amSSE 8.9 13.0----29.88- 79.7 88.7----
2024-05-22 12:24 amSSE 8.9 15.9----29.88- 79.7 88.7----
2024-05-22 12:18 amSSE 8.0 12.0----29.88- 79.9 88.7----
2024-05-22 12:12 amSSE 8.0 13.0----29.87- 79.9 88.7----
2024-05-22 12:06 amSSE 8.9 12.0----29.87- 79.9 88.7----
2024-05-22 12:00 amSSE 8.0 12.0----29.87+0.02 79.7 88.7----
2024-05-21 11:54 pmSSE 8.9 12.0----29.87- 79.9 88.7----
2024-05-21 11:48 pmSSE 8.0 12.0----29.87- 79.9 88.7----
2024-05-21 11:42 pmSSE 8.0 12.0----29.86- 79.7 88.7----
2024-05-21 11:36 pmSSE 8.0 13.0----29.87- 79.7 88.9----
2024-05-21 11:30 pmSSE 7.0 12.0----29.87- 79.9 88.9----
2024-05-21 11:24 pmSSE 8.9 12.0----29.86- 80.1 88.9----
2024-05-21 11:18 pmSSE 7.0 11.1----29.86- 80.1 88.9----
2024-05-21 11:12 pmSSE 7.0 12.0----29.86- 80.1 88.9----
2024-05-21 11:06 pm SE 7.0 13.0----29.86- 80.1 88.9----
2024-05-21 11:00 pmSSE 7.0 13.0----29.86+0.02 80.1 88.9----
2024-05-21 10:54 pmSSE 8.0 13.0----29.86- 80.2 89.1----
2024-05-21 10:48 pmSSE 7.0 11.1----29.86- 80.2 89.1----
2024-05-21 10:42 pm SE 7.0 9.9----29.85- 80.2 89.1----
2024-05-21 10:36 pm SE 6.0 9.9----29.85- 80.2 89.1----
2024-05-21 10:30 pm SE 6.0 9.9----29.85- 80.2 89.1----
2024-05-21 10:24 pm SE 7.0 12.0----29.85- 80.2 89.1----
2024-05-21 10:18 pm SE 6.0 12.0----29.85- 80.2 89.1----
2024-05-21 10:12 pm SE 6.0 11.1----29.85- 80.4 89.1----
2024-05-21 10:06 pm SE 6.0 11.1----29.85- 80.4 89.1----
2024-05-21 10:00 pm SE 6.0 11.1----29.85+0.03 80.4 89.1----
2024-05-21 09:54 pm SE 7.0 12.0----29.85- 80.4 89.1----
2024-05-21 09:48 pm SE 6.0 9.9----29.85- 80.6 89.1----
2024-05-21 09:42 pm SE 6.0 8.9----29.85- 80.4 89.1----
2024-05-21 09:36 pm SE 5.1 8.9----29.85- 80.4 89.1----
2024-05-21 09:30 pm SE 5.1 9.9----29.85- 80.4 89.1----
2024-05-21 09:24 pm SE 5.1 9.9----29.85- 80.4 89.1----
2024-05-21 09:18 pm SE 6.0 12.0----29.85- 80.6 89.1----
2024-05-21 09:12 pm SE 5.1 11.1----29.85- 80.6 89.1----
2024-05-21 09:06 pm SE 6.0 8.0----29.85- 80.6 89.1----
2024-05-21 09:00 pm SE 5.1 9.9----29.85+0.02 80.6 89.1----
2024-05-21 08:54 pm SE 5.1 12.0----29.85- 80.4 89.2----
2024-05-21 08:48 pm SE 5.1 8.9----29.84- 80.6 89.2----
2024-05-21 08:42 pm SE 5.1 9.9----29.85- 80.6 89.1----
2024-05-21 08:36 pm SE 5.1 8.9----29.85- 80.6 89.1----
2024-05-21 08:30 pm SE 5.1 8.9----29.85- 80.8 89.1----
2024-05-21 08:24 pm SE 5.1 9.9----29.84- 80.8 88.9----
2024-05-21 08:18 pm SE 5.1 8.9----29.84- 80.8 89.1----
2024-05-21 08:12 pm SE 6.0 8.9----29.85- 80.8 89.1----
2024-05-21 08:06 pm SE 6.0 11.1----29.84- 81.0 88.9----
2024-05-21 08:00 pm SE 7.0 11.1----29.84+0.02 81.0 88.9----
2024-05-21 07:54 pm SE 6.0 9.9----29.84- 81.1 88.9----
2024-05-21 07:48 pm SE 6.0 11.1----29.84- 81.1 88.9----
2024-05-21 07:42 pm SE 5.1 8.9----29.84- 81.1 88.9----
2024-05-21 07:36 pmESE 7.0 9.9----29.83- 81.3 88.9----
2024-05-21 07:30 pm SE 5.1 8.9----29.83- 81.3 88.9----
2024-05-21 07:24 pm SE 6.0 9.9----29.83- 81.1 88.9----
2024-05-21 07:18 pm SE 6.0 13.0----29.83- 81.3 88.9----
2024-05-21 07:12 pm SE 5.1 12.0----29.83- 81.3 88.9----
2024-05-21 07:06 pm SE 5.1 8.9----29.83- 81.3 88.9----
2024-05-21 07:00 pm SE 6.0 11.1----29.83-0.01 81.3 88.9----
2024-05-21 06:54 pm SE 5.1 8.9----29.83- 81.5 88.9----
2024-05-21 06:48 pm SE 5.1 8.9----29.83- 81.3 88.9----
2024-05-21 06:42 pm SE 5.1 9.9----29.83- 81.5 88.9----
2024-05-21 06:36 pm SE 6.0 9.9----29.83- 81.3 88.9----
2024-05-21 06:30 pm SE 5.1 9.9----29.83- 81.5 88.9----
2024-05-21 06:24 pm SE 5.1 8.9----29.83- 81.5 88.9----
2024-05-21 06:18 pm SE 5.1 12.0----29.83- 81.5 89.1----
2024-05-21 06:12 pm SE 6.0 8.9----29.83- 81.5 89.1----
2024-05-21 06:06 pmSSE 6.0 9.9----29.83- 81.5 89.1----
2024-05-21 06:00 pm SE 4.1 8.9----29.83-0.02 81.7 89.1----
2024-05-21 05:54 pm SE 5.1 11.1----29.83- 81.7 89.1----
2024-05-21 05:48 pm SE 5.1 11.1----29.83- 81.9 89.1----
2024-05-21 05:42 pm SE 7.0 9.9----29.83- 81.9 89.1----
2024-05-21 05:36 pm SE 6.0 11.1----29.83- 82.0 89.1----
2024-05-21 05:30 pm SE 5.1 8.9----29.83- 82.4 89.1----
2024-05-21 05:24 pm SE 5.1 11.1----29.83- 82.4 89.1----
2024-05-21 05:18 pmSSE 6.0 13.0----29.82- 82.4 89.1----
2024-05-21 05:12 pm SE 5.1 8.9----29.82- 82.9 89.1----
2024-05-21 05:06 pm SE 6.0 11.1----29.82- 82.9 89.1----
2024-05-21 05:00 pm SE 7.0 13.0----29.82-0.04 83.1 89.1----
2024-05-21 04:54 pmSSE 7.0 11.1----29.82- 83.1 88.9----
2024-05-21 04:48 pm SE 5.1 11.1----29.82- 83.1 88.9----
2024-05-21 04:42 pm SE 6.0 9.9----29.83- 83.3 88.9----
2024-05-21 04:36 pm SE 5.1 9.9----29.83- 83.1 89.1----
2024-05-21 04:30 pm SE 7.0 11.1----29.83-- 88.9----
2024-05-21 04:24 pm SE 6.0 11.1----29.83-- 88.9----
2024-05-21 04:18 pm SE 6.0 11.1----29.83-- 88.9----
2024-05-21 04:12 pm SE 6.0 11.1----29.83-- 88.9----
2024-05-21 04:06 pmSSE 7.0 11.1----29.83-- 88.9----
2024-05-21 04:00 pmSSE 7.0 12.0----29.84-0.04 83.7 88.9----
2024-05-21 03:54 pm SE 6.0 12.0----29.84- 83.7 88.7----
2024-05-21 03:48 pm SE 6.0 11.1----29.84-- 88.7----
2024-05-21 03:42 pmSSE 8.0 11.1----29.84-- 88.7----
2024-05-21 03:36 pmSSE 6.0 12.0----29.84-- 88.7----
2024-05-21 03:30 pm SE 6.0 12.0----29.84-------
2024-05-21 03:24 pm SE 6.0 11.1----29.85-------
2024-05-21 03:18 pmSSE 6.0 14.0----29.85-- 88.7----
2024-05-21 03:12 pm SE 6.0 12.0----29.85-- 88.7----
2024-05-21 03:06 pmSSE 7.0 11.1----29.85-- 88.5----
2024-05-21 03:00 pm SE 5.1 8.9----29.85-0.03 84.4 88.5----
2024-05-21 02:54 pmSSE 7.0 12.0----29.85- 83.7 88.5----